Regional Weather Roundup
Issued by NWS

Home | Current Version | Previous Version | Text Only | Print | Product List | Glossary On
Versions: 1 2 3 4 5 6 7 8 9 10 11 12 13 14 15 16 17 18 19 20 21 22 23 24 25 26 27 28 29 30 31 32 33 34 35 36 37 38 39 40 41 42 43 44 45 46 47 48 49 50
000
ASUS44 KFWD 082310
RWRTX
NORTH TEXAS HOURLY WEATHER ROUNDUP
NATIONAL WEATHER SERVICE FORT WORTH TX
500 PM CST MON FEB 08 2016

NOTE: "FAIR" INDICATES FEW OR NO CLOUDS BELOW 12,000 FEET WITH NO
SIGNIFICANT WEATHER AND/OR OBSTRUCTIONS TO VISIBILITY.

TXZ118-119-090000-
DALLAS/FORT WORTH METROPLEX

CITY           SKY/WX    TMP DP  RH WIND       PRES   REMARKS
DFW AIRPORT    MOSUNNY   56   4  12 NW30G39   30.23F
DALLAS LOVE    MOSUNNY   55   5  13 NW26G38   30.23F
FTW MEACHAM    SUNNY     57   6  13 NW25G35   30.25F
DAL-EXECUTIVE  SUNNY     55   6  14 NW29G43   30.22F
FTW-ALLIANCE   MOSUNNY   55   4  12 NW22G33   30.25S
FTW-NAS-JRB    SUNNY     57   3  11 N23G35    30.27S
FTW-SPINKS     SUNNY     55   7  14 NW24G36   30.28S
ARLINGTON      SUNNY     58   6  12 NW25G40   30.24S
GRAND PRAIRIE  SUNNY     57   7  13 NW14G32   30.27S
MESQUITE       SUNNY     54   5  14 NW24G35   30.24S
LANCASTER      SUNNY     55   0  10 NW26G35   30.25S
$$

TXZ091>094-102>105-117-120-121-131>134-090000-
NORTH CENTRAL TEXAS

CITY           SKY/WX    TMP DP  RH WIND       PRES   REMARKS
SHRMAN/DENISON SUNNY     53   5  14 NW26G33   30.23R
GAINESVILLE    SUNNY     52   1  12 W29G46    30.26S
BOWIE          SUNNY     53   2  12 NW25G37   30.25F
BRIDGEPORT     SUNNY     55  16  21 N20G29    30.29S
DECATUR        SUNNY     53   5  14 NW18G26   30.26S
DENTON         SUNNY     54   7  15 NW25G35   30.24S
MCKINNEY       SUNNY     54   6  14 NW25G33   30.22F
GREENVILLE     SUNNY     54   3  13 NW21G33   30.21S
ROCKWALL       SUNNY     54   9  16 N23G31    30.21F
TERRELL        SUNNY     54   7  15 NW15G26   30.22F
WAXAHACHIE     SUNNY     55  14  19 NW23G31   30.25S
CLEBURNE         N/A     55   7  14 NW21G30   30.28S
GRANBURY       SUNNY     58   9  14 NW20G28   30.29F
$$

TXZ083>090-098>101-113>116-127>130-139>142-154-155-090000-
WESTERN NORTH TEXAS

CITY           SKY/WX    TMP DP  RH WIND       PRES   REMARKS
WICHITA FALLS  SUNNY     54   1  11 N25G35    30.28F
WF-KICKAPOO    SUNNY     57  -1   9 NW16G29   30.29F
VERNON         SUNNY     57  -7   7 N20G30    30.31S
ABILENE        SUNNY     57  13  17 NW20G26   30.32F
ABILENE-DYESS  SUNNY     58  16  19 N21G28    30.31F
BRECKENRIDGE   SUNNY     58   9  14 NW20G29   30.30F
GRAHAM         SUNNY     56  14  18 NW21      30.28F
MINERAL WELLS  SUNNY     56   6  13 NW25G33   30.27F
STEPHENVILLE   SUNNY     56   5  12 NW18G33   30.32S
COMANCHE       SUNNY     57  13  17 NW18G32   30.31F
BROWNWOOD      SUNNY     57   9  14 NW18G31   30.32S
COLEMAN        SUNNY     59  12  16 N14G23    30.33F
$$

TXZ143>147-156>162-174-175-090000-
CENTRAL TEXAS

CITY           SKY/WX    TMP DP  RH WIND       PRES   REMARKS
WACO           SUNNY     58   8  13 NW20G29   30.28S
WACO-TSTC      SUNNY     57   9  14 NW20G31   30.28S
WACO-MCGREGOR  SUNNY     58   9  14 NW17G25   30.28F
HILLSBORO      SUNNY     55  10  16 NW23      30.27S
CORSICANA      SUNNY     57  10  15 NW20G29   30.26S
MEXIA          SUNNY     55   7  14 NW22G32   30.25S
HEARNE         SUNNY     59  15  17 NW20G31   30.28S
CAMERON        SUNNY     60  13  16 NW20G25   30.27S
TEMPLE         SUNNY     59  11  15 NW24G35   30.28S
KILLEEN        SUNNY     58   8  13 NW21G31   30.28S
KILLEEN-SKYLRK SUNNY     59  12  15 NW21      30.28F
GATESVILLE     SUNNY     59  10  14 NW14G22   30.30F
HAMILTON       SUNNY     58  12  16 NW28G36   30.29F
LAMPASAS       SUNNY     58  10  14 NW12G17   30.29S
$$

TXZ095>097-106>112-122>126-135>138-148>153-164>167-090000-
EAST TEXAS

CITY           SKY/WX    TMP DP  RH WIND       PRES   REMARKS
PARIS          SUNNY     52  10  19 NW31G44   30.17R
SULPHUR SPRNGS SUNNY     52  13  21 NW28G36   30.20S
MOUNT PLEASANT SUNNY     53   7  15 NW24G32   30.17S
GILMER         SUNNY     52  10  19 W12G23    30.16S
MINEOLA        SUNNY     54   9  16 W21G29    30.19F
TYLER          SUNNY     54   9  16 NW22G33   30.19S
LONGVIEW       SUNNY     52  10  18 NW21G31   30.15S
MARSHALL       SUNNY     53   2  13 NW14G30   30.16F
ATHENS         SUNNY     54  10  17 NW12G25   30.21S
PALESTINE      SUNNY     54  11  18 NW17G29   30.24R
JACKSONVILLE   SUNNY     53   9  17 NW16G25   30.21S
HENDERSON      SUNNY     53   9  17 NW13G31   30.19R
CENTER         FAIR      55   5  13 NW16G30   30.15S
NACOGDOCHES    SUNNY     54  10  17 NW24G32   30.19R
LUFKIN         SUNNY     55  11  17 NW21G30   30.19S
$$

SUPPLEMENTAL OBSERVATIONS (CENTRAL)

CITY           SKY/WX    TMP DP  RH WIND       PRES   REMARKS
PAT MAYSE LAKE   N/A     52   9  17 NW21        N/A
GREENVILLE       N/A     52   9  17 NW21G36     N/A
CEDAR HILL       N/A     55  10  16 NW14G28     N/A
MCGREGOR         N/A     57   9  14 N14G29      N/A
$$

SUPPLEMENTAL OBSERVATIONS (WEST)

CITY           SKY/WX    TMP DP  RH WIND       PRES   REMARKS
MILLERS CREEK    N/A     57  12  17 N16G33      N/A
HAMBY            N/A     57  10  15 NW12G26     N/A
IVIE RESERVOIR   N/A     59  12  15 NW14G22     N/A
COLORADO BEND    N/A     57  10  15 N10G21      N/A
$$

SUPPLEMENTAL OBSERVATIONS (EAST)

CITY           SKY/WX    TMP DP  RH WIND       PRES   REMARKS
CLARKSVILLE      N/A     52   9  17 NW22G35     N/A
TEXARKANA        N/A     52   9  17 NW13G30     N/A
LINDEN           N/A     54   9  16 NW14G26     N/A
GILMER           N/A     54  10  17 NW13G26     N/A
HENDERSON        N/A     54   7  15 NW18G36     N/A
N SABINE NF      N/A     54  12  19 MISG        N/A
S SABINE NF      N/A     54  12  19 W6G18       N/A
$$

SUPPLEMENTAL OBSERVATIONS ARE A COLLECTION OF AUTOMATED INSTRUMENTS
THAT ARE MAINTAINED BY A VARIETY OF FEDERAL AND STATE AGENCIES.
CERTAIN ELEMENTS...SUCH AS HUMIDITY VALUES AND SUSTAINED WIND
SPEEDS...MAY BE APPROXIMATED.




USA.gov is the U.S. government's official web portal to all federal, state and local government web resources and services.